QPF
0.00 0.00 0.00 0.00 0.00 0.00 0.00 0.00 0.00 0.00 0.00 0.00 0.00 0.05 0.21 0.05 0.02 0.01 0.01 0.00 0.00 0.00 0.00 0.00 0.00 0.00 0.00 0.00 0.00 0.00 0.00 0.00 0.00 0.00 0.00 0.00 0.01 0.00 0.00 0.00 0.00 0.00 0.00 0.00
0.00 0.00 0.00 0.00 0.00 0.00 0.00 0.00 0.00 0.00 0.00 0.00 0.00 0.03 0.14 0.16 0.01 0.00 0.00 0.01 0.00 0.00 0.00 0.00 0.00 0.00 0.00 0.00 0.00 0.00 0.00 0.00 0.00 0.00 0.00 0.00 0.00 0.00 0.00 0.00 0.00 0.00 0.00 0.00
0.00 0.00 0.00 0.00 0.00 0.00 0.00 0.00 0.00 0.00 0.00 0.00 0.00 0.01 0.07 0.12 0.04 0.00 0.00 0.00 0.00 0.00 0.00 0.00 0.00 0.00 0.00 0.00 0.00 0.00 0.00 0.00 0.00 0.00 0.00 0.00 0.00 0.03 0.01 0.00 0.00 0.02 0.00 0.00
0.00 0.00 0.00 0.00 0.00 0.00 0.00 0.00 0.00 0.00 0.00 0.00 0.00 0.00 0.00 0.03 0.03 0.00 0.00 0.00 0.00 0.00 0.00 0.00 0.00 0.00 0.00 0.00 0.00 0.00 0.00 0.00 0.00 0.00 0.00 0.03 0.02 0.01 0.03 0.05 0.03 0.00 0.00 0.00
0.00 0.00 0.00 0.00 0.00 0.00 0.00 0.01 0.02 0.01 0.00 0.00 0.00 0.00 0.00 0.01 0.02 0.00 0.00 0.00 0.00 0.00 0.00 0.00 0.00 0.00 0.00 0.00 0.00 0.00 0.00 0.00 0.00 0.00 0.00 0.03 0.03 0.01 0.02 0.03 0.04 0.00 0.00 0.00
0.00 0.00 0.00 0.00 0.00 0.00 0.00 0.00 0.03 0.03 0.01 0.00 0.00 0.00 0.00 0.00 0.00 0.00 0.00 0.00 0.00 0.00 0.00 0.00 0.00 0.00 0.00 0.00 0.00 0.00 0.00 0.00 0.00 0.00 0.00 0.00 0.04 0.03 0.02 0.04 0.02 0.02 0.01 0.00
0.00 0.00 0.00 0.00 0.00 0.00 0.00 0.00 0.02 0.03 0.02 0.00 0.00 0.00 0.00 0.00 0.00 0.00 0.00 0.00 0.00 0.00 0.00 0.00 0.00 0.00 0.00 0.00 0.00 0.00 0.00 0.00 0.00 0.00 0.00 0.00 0.01 0.01 0.03 0.06 0.04 0.03 0.03 0.02
0.00 0.00 0.00 0.00 0.00 0.00 0.00 0.00 0.00 0.00 0.01 0.00 0.00 0.00 0.00 0.00 0.00 0.00 0.00 0.00 0.00 0.00 0.00 0.00 0.00 0.00 0.00 0.00 0.00 0.00 0.00 0.00 0.00 0.00 0.00 0.00 0.00 0.00 0.00 0.03 0.04 0.01 0.00 0.01
0.00 0.00 0.00 0.00 0.00 0.00 0.00 0.00 0.00 0.01 0.02 0.02 0.00 0.00 0.00 0.00 0.00 0.00 0.00 0.00 0.00 0.00 0.00 0.00 0.00 0.00 0.00 0.00 0.00 0.00 0.00 0.00 0.00 0.00 0.00 0.00 0.00 0.00 0.00 0.00 0.01 0.00 0.00 0.00
0.00 0.00 0.00 0.00 0.00 0.00 0.00 0.01 0.05 0.03 0.04 0.02 0.00 0.00 0.00 0.00 0.00 0.00 0.00 0.00 0.00 0.00 0.00 0.00 0.00 0.00 0.00 0.00 0.00 0.00 0.00 0.00 0.00 0.00 0.00 0.00 0.00 0.01 0.04 0.00 0.01 0.01 0.01 0.00
0.00 0.00 0.00 0.00 0.00 0.00 0.00 0.00 0.02 0.02 0.01 0.01 0.00 0.00 0.00 0.00 0.00 0.00 0.00 0.00 0.00 0.00 0.00 0.00 0.00 0.00 0.00 0.00 0.00 0.00 0.00 0.00 0.00 0.00 0.00 0.00 0.00 0.00 0.02 0.03 0.01 0.05 0.02 0.00
0.00 0.00 0.00 0.00 0.00 0.00 0.00 0.00 0.00 0.00 0.00 0.00 0.00 0.00 0.00 0.00 0.00 0.00 0.00 0.00 0.00 0.00 0.00 0.00 0.02 0.00 0.00 0.00 0.00 0.00 0.00 0.00 0.00 0.00 0.00 0.00 0.00 0.00 0.00 0.00 0.00 0.00 0.01 0.00
0.00 0.00 0.00 0.00 0.00 0.00 0.00 0.00 0.00 0.00 0.00 0.00 0.00 0.00 0.00 0.00 0.00 0.00 0.00 0.00 0.00 0.00 0.00 0.00 0.01 0.01 0.00 0.00 0.00 0.00 0.00 0.00 0.00 0.00 0.00 0.00 0.00 0.00 0.00 0.00 0.00 0.00 0.00 0.00
0.00 0.00 0.00 0.00 0.00 0.00 0.00 0.00 0.00 0.00 0.00 0.00 0.00 0.00 0.00 0.00 0.00 0.00 0.00 0.00 0.00 0.00 0.00 0.01 0.01 0.00 0.00 0.00 0.00 0.00 0.00 0.00 0.00 0.00 0.00 0.00 0.01 0.01 0.00 0.00 0.00 0.00 0.00 0.00
0.00 0.00 0.00 0.00 0.00 0.00 0.01 0.00 0.00 0.00 0.00 0.00 0.00 0.00 0.00 0.00 0.00 0.00 0.00 0.00 0.00 0.00 0.00 0.00 0.01 0.00 0.01 0.02 0.00 0.00 0.01 0.04 0.05 0.06 0.03 0.04 0.07 0.02 0.00 0.00 0.00 0.00 0.00 0.00
0.00 0.00 0.00 0.00 0.00 0.00 0.01 0.01 0.00 0.02 0.01 0.00 0.00 0.00 0.01 0.01 0.00 0.00 0.00 0.00 0.00 0.00 0.00 0.01 0.05 0.10 0.06 0.07 0.04 0.08 0.14 0.18 0.08 0.03 0.12 0.19 0.11 0.02 0.00 0.00 0.01 0.02 0.01 0.01
0.00 0.00 0.00 0.00 0.00 0.00 0.00 0.00 0.00 0.00 0.00 0.00 0.00 0.00 0.03 0.03 0.00 0.00 0.00 0.00 0.00 0.00 0.00 0.00 0.04 0.07 0.11 0.10 0.12 0.18 0.14 0.03 0.04 0.05 0.09 0.08 0.03 0.02 0.02 0.02 0.02 0.03 0.04 0.05
0.00 0.00 0.00 0.00 0.01 0.01 0.00 0.00 0.00 0.00 0.00 0.00 0.00 0.02 0.07 0.04 0.07 0.03 0.01 0.00 0.00 0.00 0.01 0.04 0.06 0.11 0.13 0.04 0.03 0.05 0.08 0.06 0.06 0.10 0.13 0.09 0.11 0.14 0.10 0.06 0.02 0.03 0.05 0.07
0.00 0.00 0.00 0.02 0.03 0.00 0.00 0.00 0.00 0.00 0.00 0.00 0.00 0.05 0.06 0.13 0.16 0.10 0.06 0.04 0.01 0.00 0.01 0.02 0.10 0.06 0.06 0.04 0.05 0.04 0.04 0.06 0.07 0.14 0.17 0.13 0.09 0.07 0.07 0.06 0.12 0.14 0.09 0.05
0.00 0.00 0.00 0.00 0.01 0.00 0.00 0.00 0.00 0.00 0.00 0.00 0.00 0.10 0.13 0.06 0.02 0.01 0.04 0.04 0.04 0.01 0.03 0.02 0.01 0.02 0.01 0.07 0.12 0.10 0.06 0.05 0.05 0.09 0.19 0.35 0.31 0.10 0.04 0.08 0.12 0.22 0.29 0.17
0.00 0.00 0.00 0.00 0.00 0.00 0.00 0.00 0.00 0.00 0.00 0.00 0.00 0.16 0.17 0.12 0.02 0.02 0.04 0.01 0.00 0.00 0.00 0.00 0.00 0.01 0.01 0.08 0.08 0.06 0.07 0.02 0.08 0.11 0.08 0.09 0.27 0.21 0.19 0.26 0.31 0.38 0.53 0.42
0.00 0.00 0.01 0.00 0.00 0.00 0.00 0.00 0.00 0.00 0.00 0.00 0.03 0.16 0.21 0.13 0.04 0.07 0.02 0.00 0.00 0.00 0.00 0.00 0.00 0.00 0.00 0.02 0.02 0.03 0.09 0.03 0.07 0.20 0.30 0.19 0.12 0.43 0.72 0.87 0.83 0.47 0.50 0.32
0.00 0.00 0.00 0.00 0.00 0.00 0.00 0.00 0.00 0.01 0.00 0.00 0.02 0.08 0.12 0.08 0.06 0.03 0.00 0.00 0.00 0.00 0.00 0.00 0.00 0.00 0.00 0.04 0.05 0.04 0.02 0.02 0.06 0.08 0.05 0.10 0.28 0.48 0.76 0.69 0.55 0.41 0.26 0.09
0.00 0.00 0.00 0.00 0.00 0.00 0.00 0.01 0.01 0.00 0.00 0.00 0.01 0.01 0.00 0.01 0.00 0.00 0.00 0.00 0.00 0.00 0.00 0.00 0.00 0.00 0.00 0.00 0.00 0.02 0.01 0.01 0.02 0.03 0.02 0.02 0.09 0.10 0.16 0.16 0.16 0.16 0.19 0.12
0.00 0.00 0.00 0.00 0.00 0.00 0.02 0.05 0.01 0.00 0.00 0.00 0.00 0.00 0.00 0.00 0.00 0.00 0.00 0.00 0.00 0.00 0.00 0.00 0.00 0.00 0.00 0.00 0.00 0.00 0.00 0.00 0.00 0.00 0.00 0.00 0.00 0.02 0.05 0.06 0.05 0.04 0.06 0.05
0.00 0.00 0.00 0.00 0.00 0.00 0.00 0.00 0.00 0.00 0.00 0.00 0.00 0.00 0.01 0.00 0.00 0.00 0.00 0.00 0.00 0.00 0.00 0.00 0.00 0.00 0.00 0.00 0.00 0.00 0.00 0.00 0.00 0.00 0.00 0.00 0.00 0.00 0.00 0.00 0.00 0.00 0.00 0.00
MSLP
1010.88 1010.40 1010.20 1010.42 1010.49 1010.70 1011.03 1011.64 1012.29 1013.34 1014.15 1014.52 1014.67 1014.48 1014.08 1014.69 1014.26 1013.89 1013.94 1014.01 1013.70 1013.69 1014.08 1014.67 1015.26 1015.86 1016.48 1017.26 1017.82 1018.30 1018.61 1018.94 1019.32 1019.59 1019.72 1019.79 1019.92 1020.08 1020.27 1020.36 1020.60 1020.74 1020.70 1020.86
1010.70 1010.20 1010.38 1010.54 1010.68 1010.79 1011.05 1011.51 1012.37 1013.57 1014.27 1014.66 1014.77 1014.58 1014.67 1014.43 1014.35 1013.83 1013.72 1013.81 1013.55 1013.70 1013.95 1014.47 1014.90 1015.47 1016.08 1016.80 1017.52 1018.14 1018.44 1018.86 1019.10 1019.32 1019.42 1019.32 1019.67 1019.90 1019.99 1020.21 1020.40 1020.57 1020.70 1020.86
1010.07 1010.22 1010.43 1010.46 1010.60 1010.76 1011.05 1011.22 1012.10 1012.91 1014.16 1014.57 1014.48 1014.23 1014.45 1014.31 1014.14 1013.97 1013.74 1013.42 1013.04 1013.08 1013.38 1013.88 1014.50 1014.99 1015.67 1016.34 1017.05 1017.79 1018.26 1018.70 1018.90 1019.20 1019.41 1019.54 1019.72 1020.10 1020.16 1020.31 1020.42 1020.46 1020.62 1020.79
1010.09 1010.31 1010.23 1010.24 1010.24 1010.55 1010.71 1011.01 1012.07 1013.00 1013.74 1013.98 1014.46 1013.46 1013.38 1013.32 1012.96 1013.23 1012.88 1012.50 1012.38 1012.37 1012.84 1013.36 1013.93 1014.54 1014.97 1015.76 1016.73 1017.48 1018.18 1018.62 1018.95 1019.24 1019.21 1019.18 1019.28 1019.56 1019.82 1020.18 1020.32 1020.16 1020.48 1020.68
1009.92 1009.95 1009.95 1009.92 1009.88 1010.28 1010.64 1011.19 1011.90 1012.79 1013.44 1013.62 1013.76 1013.68 1011.78 1012.11 1012.27 1011.69 1011.59 1011.42 1011.54 1011.78 1012.09 1012.62 1013.19 1013.60 1014.43 1015.42 1016.15 1017.14 1018.00 1018.58 1018.79 1019.07 1019.09 1019.14 1019.38 1019.24 1019.70 1020.12 1020.34 1020.38 1020.42 1020.56
1009.72 1009.92 1009.82 1009.71 1010.17 1010.28 1011.15 1011.71 1012.34 1012.96 1013.05 1012.75 1012.03 1012.26 1010.26 1010.39 1009.70 1009.52 1010.10 1010.08 1010.24 1010.86 1011.52 1011.98 1012.61 1013.43 1014.28 1015.16 1015.88 1016.74 1017.64 1018.22 1018.62 1018.84 1019.00 1019.15 1019.23 1019.46 1019.58 1019.90 1020.00 1020.22 1020.34 1020.26
1009.54 1009.44 1009.69 1009.81 1010.05 1010.70 1010.80 1010.99 1011.46 1012.04 1012.13 1011.48 1011.70 1011.51 1008.72 1008.43 1008.44 1008.33 1008.94 1009.58 1009.78 1009.92 1010.82 1011.55 1012.44 1013.07 1013.80 1014.63 1015.32 1016.12 1017.08 1017.70 1018.25 1018.56 1018.76 1018.95 1019.09 1019.27 1019.37 1019.49 1019.77 1019.94 1020.10 1020.21
1009.29 1009.13 1009.26 1009.36 1009.35 1009.40 1010.17 1010.28 1010.09 1010.20 1010.58 1010.83 1011.27 1009.69 1007.34 1007.26 1007.34 1008.12 1008.68 1009.11 1009.57 1009.35 1010.16 1011.01 1011.64 1012.55 1013.34 1014.02 1014.86 1015.62 1016.36 1017.03 1017.76 1018.22 1018.60 1018.88 1019.06 1019.08 1019.21 1019.46 1019.58 1019.70 1019.79 1019.85
1009.42 1008.94 1008.95 1009.11 1009.26 1009.45 1010.02 1010.13 1009.89 1010.03 1010.50 1010.04 1009.36 1008.22 1006.99 1006.90 1007.18 1007.97 1008.37 1008.82 1008.91 1009.30 1009.72 1010.55 1011.36 1012.22 1012.89 1013.64 1014.26 1015.01 1015.77 1016.48 1017.14 1017.68 1018.26 1018.63 1018.91 1019.12 1019.12 1019.40 1019.61 1019.67 1019.85 1019.88
1009.68 1009.18 1008.82 1008.84 1009.16 1009.55 1009.36 1009.62 1010.21 1010.19 1009.54 1008.76 1008.06 1007.67 1006.85 1006.60 1006.84 1007.38 1007.89 1008.04 1008.60 1009.29 1009.66 1010.54 1011.12 1011.81 1012.41 1013.26 1014.00 1014.68 1015.43 1015.84 1016.52 1017.17 1017.76 1018.20 1018.54 1018.88 1019.04 1019.27 1019.40 1019.50 1019.55 1019.56
1009.96 1009.73 1008.95 1009.04 1008.58 1008.32 1009.22 1009.20 1009.48 1009.54 1009.18 1008.20 1007.54 1006.54 1006.81 1006.48 1006.48 1006.88 1007.66 1007.71 1008.34 1009.12 1009.41 1010.40 1011.19 1011.82 1012.27 1013.02 1013.78 1014.48 1015.10 1015.70 1016.23 1016.84 1017.37 1017.86 1018.25 1018.62 1018.88 1019.10 1019.14 1019.20 1019.36 1019.40
1010.34 1009.82 1008.78 1008.38 1008.40 1008.74 1008.52 1008.41 1008.56 1008.24 1008.81 1008.31 1007.80 1006.79 1006.74 1006.60 1006.25 1007.06 1007.36 1007.72 1008.06 1008.81 1009.44 1010.44 1011.26 1011.86 1012.43 1012.94 1013.60 1014.22 1014.96 1015.34 1015.83 1016.43 1017.00 1017.38 1017.86 1018.31 1018.53 1018.73 1018.98 1019.11 1019.09 1019.09
1010.56 1010.06 1009.08 1008.26 1008.88 1009.05 1008.73 1009.20 1009.36 1009.02 1008.44 1007.64 1007.34 1006.46 1007.03 1006.86 1007.04 1007.36 1007.65 1008.15 1008.40 1009.02 1009.82 1010.94 1011.77 1012.12 1012.53 1012.92 1013.32 1013.96 1014.60 1014.98 1015.51 1016.22 1016.66 1017.03 1017.41 1017.86 1018.24 1018.54 1018.82 1018.97 1019.00 1019.00
1010.68 1010.18 1009.76 1009.00 1009.08 1009.60 1009.37 1009.47 1009.62 1009.62 1008.51 1007.50 1007.17 1006.87 1007.37 1007.80 1007.90 1007.91 1008.06 1008.57 1008.77 1009.22 1009.86 1010.57 1011.49 1012.15 1012.27 1012.75 1013.11 1013.82 1014.35 1014.83 1015.21 1015.80 1016.16 1016.60 1016.86 1017.22 1017.71 1018.26 1018.58 1018.78 1018.98 1019.05
1010.71 1010.09 1010.12 1009.88 1009.88 1009.68 1010.02 1009.87 1009.91 1009.69 1009.66 1008.86 1008.05 1008.34 1008.73 1008.96 1008.81 1008.60 1008.62 1008.84 1009.12 1009.25 1009.64 1010.32 1010.82 1011.60 1012.19 1012.59 1013.23 1013.63 1014.40 1014.75 1015.00 1015.30 1015.68 1015.89 1016.36 1016.83 1017.32 1017.79 1018.21 1018.46 1018.64 1018.94
1011.09 1010.45 1010.57 1010.25 1010.15 1009.83 1010.30 1010.53 1010.23 1010.39 1010.08 1009.46 1009.31 1009.08 1009.83 1010.02 1009.52 1009.26 1009.16 1009.48 1009.64 1009.78 1010.11 1010.66 1011.18 1011.66 1012.15 1012.34 1013.26 1014.18 1014.60 1014.77 1014.96 1015.30 1015.30 1015.51 1016.30 1016.65 1017.15 1017.58 1017.86 1018.12 1018.46 1018.79
1011.34 1011.10 1010.89 1010.40 1010.48 1010.66 1010.68 1010.75 1010.53 1010.64 1010.40 1010.08 1009.33 1010.01 1010.44 1010.47 1010.27 1010.22 1009.86 1010.09 1010.09 1010.30 1010.55 1011.02 1011.64 1012.30 1012.46 1013.08 1013.50 1014.13 1014.77 1015.00 1015.19 1015.30 1015.54 1015.92 1016.08 1016.50 1017.05 1017.40 1017.76 1018.05 1018.25 1018.78
1011.49 1011.56 1011.56 1011.06 1011.10 1010.92 1010.39 1010.73 1010.80 1010.59 1010.04 1010.07 1010.03 1010.46 1011.16 1011.48 1011.55 1011.36 1011.13 1011.05 1011.18 1011.52 1011.64 1011.67 1011.96 1012.67 1013.15 1013.59 1013.95 1014.34 1014.93 1015.02 1015.08 1015.42 1015.53 1015.94 1016.22 1016.43 1016.76 1017.25 1017.63 1017.91 1017.90 1018.40
1011.94 1011.77 1011.83 1011.73 1011.34 1010.97 1010.88 1010.60 1010.72 1010.30 1009.41 1009.58 1009.93 1010.84 1011.45 1011.86 1011.73 1012.25 1012.16 1012.33 1012.44 1012.67 1012.96 1013.10 1013.01 1013.10 1013.59 1013.89 1014.05 1014.27 1014.78 1015.27 1015.11 1015.50 1015.92 1016.15 1016.18 1016.56 1016.81 1016.99 1017.33 1017.60 1017.55 1018.18
1012.24 1012.26 1011.80 1012.08 1011.39 1010.44 1009.88 1010.17 1010.54 1010.28 1009.05 1009.10 1009.92 1010.97 1011.50 1011.78 1012.06 1012.76 1013.02 1012.96 1013.34 1013.48 1013.70 1013.90 1013.99 1013.98 1013.95 1014.21 1014.14 1014.37 1014.57 1014.83 1015.24 1015.52 1015.74 1015.86 1015.60 1016.07 1016.60 1016.90 1017.19 1017.39 1017.74 1018.63
1011.94 1012.12 1011.86 1011.82 1011.30 1010.70 1010.38 1010.40 1010.39 1010.12 1010.11 1009.76 1009.86 1011.12 1011.83 1012.17 1012.69 1013.52 1014.01 1014.15 1014.19 1014.33 1014.42 1014.56 1014.73 1014.66 1014.78 1014.63 1014.74 1015.00 1015.09 1015.41 1015.70 1015.82 1016.04 1016.36 1016.44 1016.27 1016.71 1016.81 1017.12 1017.54 1018.15 1018.70
1011.74 1011.91 1012.08 1012.01 1011.32 1010.98 1010.79 1010.76 1010.46 1010.22 1009.99 1010.53 1010.47 1011.67 1012.20 1013.20 1013.74 1014.21 1014.45 1014.59 1014.92 1014.87 1015.02 1015.06 1015.18 1015.47 1015.47 1015.51 1015.50 1015.67 1015.88 1016.06 1016.22 1016.51 1016.49 1016.19 1017.00 1016.92 1017.15 1017.53 1017.54 1017.72 1018.58 1019.25
1011.71 1011.62 1011.66 1011.94 1011.03 1010.80 1010.86 1010.55 1010.21 1010.33 1010.24 1010.76 1010.82 1011.92 1012.87 1013.07 1013.74 1014.36 1014.33 1014.71 1015.02 1015.16 1015.47 1015.62 1015.77 1015.94 1016.22 1016.26 1016.19 1016.43 1016.90 1016.91 1017.08 1017.30 1017.48 1017.66 1017.50 1017.84 1017.90 1018.04 1018.19 1018.37 1018.87 1019.46
1011.44 1011.70 1011.38 1011.49 1010.95 1010.74 1010.58 1010.45 1010.74 1010.68 1010.59 1010.84 1011.14 1011.88 1012.71 1013.46 1014.12 1014.54 1014.82 1014.99 1015.22 1015.53 1015.78 1015.94 1016.17 1016.48 1016.98 1017.30 1017.23 1017.28 1017.46 1017.52 1017.65 1017.93 1018.31 1018.26 1018.34 1018.29 1019.05 1019.02 1019.77 1019.31 1019.66 1019.97
1010.85 1011.40 1011.05 1010.86 1010.71 1010.49 1010.44 1010.63 1010.46 1010.56 1010.78 1011.23 1011.70 1012.15 1012.85 1013.48 1014.10 1014.36 1014.70 1015.06 1015.48 1015.87 1016.26 1016.28 1016.54 1016.84 1017.39 1017.86 1017.81 1017.89 1018.08 1018.14 1018.18 1018.32 1018.57 1018.81 1018.86 1019.10 1019.85 1020.82 1020.95 1020.47 1020.96 1020.80
1010.15 1010.03 1010.02 1009.55 1009.74 1009.85 1009.78 1010.30 1010.54 1010.61 1010.89 1011.26 1011.75 1012.50 1013.19 1013.68 1014.09 1014.59 1015.10 1015.70 1016.19 1016.47 1016.53 1016.86 1017.24 1017.51 1017.85 1018.09 1018.23 1018.23 1018.57 1018.73 1018.54 1018.58 1018.95 1019.06 1019.47 1020.04 1020.38 1020.56 1020.66 1020.78 1020.99 1021.15
Thickness
5738 5736 5728 5730 5735 5738 5739 5732 5729 5728 5731 5729 5727 5730 5738 5739 5748 5753 5754 5754 5764 5767 5773 5772 5771 5769 5765 5761 5758 5756 5755 5754 5751 5748 5747 5748 5746 5748 5749 5749 5748 5748 5750 5751
5728 5724 5732 5733 5731 5731 5732 5728 5722 5720 5721 5724 5721 5725 5732 5735 5742 5753 5753 5750 5759 5765 5768 5768 5770 5770 5768 5763 5760 5756 5757 5755 5755 5754 5753 5754 5753 5753 5753 5753 5753 5752 5752 5753
5721 5725 5729 5726 5723 5721 5724 5729 5720 5722 5715 5719 5719 5722 5723 5730 5735 5744 5750 5759 5764 5767 5767 5768 5768 5769 5770 5766 5762 5758 5758 5757 5758 5757 5754 5753 5753 5752 5754 5754 5756 5756 5756 5755
5719 5723 5720 5721 5721 5726 5715 5736 5724 5711 5708 5705 5713 5714 5722 5730 5734 5742 5751 5759 5765 5771 5772 5770 5769 5770 5772 5771 5766 5761 5758 5757 5758 5757 5757 5756 5755 5753 5757 5756 5757 5759 5759 5757
5711 5714 5715 5714 5723 5728 5722 5731 5723 5713 5703 5704 5704 5701 5735 5736 5727 5743 5755 5764 5770 5772 5777 5774 5774 5777 5777 5773 5768 5763 5758 5756 5758 5758 5758 5758 5755 5760 5760 5758 5757 5760 5760 5760
5714 5720 5719 5722 5720 5725 5721 5713 5708 5702 5701 5694 5719 5711 5736 5734 5744 5758 5765 5773 5779 5777 5779 5778 5777 5778 5775 5774 5770 5765 5759 5756 5757 5758 5758 5757 5757 5757 5759 5758 5759 5761 5762 5763
5706 5711 5717 5721 5710 5715 5715 5712 5691 5685 5686 5700 5710 5705 5742 5759 5763 5769 5768 5770 5777 5782 5780 5778 5774 5776 5776 5773 5772 5769 5762 5758 5758 5757 5757 5758 5758 5760 5760 5762 5762 5762 5762 5763
5690 5689 5709 5720 5719 5715 5711 5716 5705 5685 5694 5701 5705 5708 5749 5767 5776 5768 5763 5768 5773 5782 5783 5781 5780 5777 5776 5776 5774 5771 5765 5762 5760 5759 5757 5758 5759 5761 5763 5762 5764 5765 5764 5765
5687 5693 5714 5718 5720 5720 5704 5702 5723 5705 5698 5699 5717 5735 5761 5764 5761 5757 5754 5763 5771 5775 5782 5780 5780 5776 5776 5777 5776 5774 5768 5765 5763 5762 5760 5759 5760 5759 5761 5761 5762 5763 5763 5763
5696 5687 5708 5713 5719 5715 5717 5722 5695 5695 5685 5692 5719 5721 5736 5750 5751 5754 5752 5762 5769 5770 5774 5776 5778 5778 5779 5777 5776 5775 5771 5767 5764 5764 5763 5761 5761 5761 5762 5762 5762 5763 5764 5764
5695 5690 5699 5702 5706 5713 5707 5708 5708 5707 5705 5703 5704 5731 5747 5753 5757 5751 5752 5760 5765 5765 5770 5770 5771 5772 5773 5774 5774 5772 5769 5766 5762 5762 5762 5761 5760 5759 5759 5760 5762 5764 5763 5764
5690 5690 5687 5699 5713 5714 5719 5719 5721 5711 5691 5710 5709 5725 5745 5753 5763 5755 5753 5753 5761 5760 5765 5765 5763 5764 5766 5769 5769 5769 5766 5766 5763 5760 5760 5760 5760 5758 5758 5758 5759 5759 5761 5762
5683 5678 5677 5691 5696 5703 5704 5704 5704 5706 5712 5712 5709 5730 5744 5751 5753 5755 5749 5748 5757 5756 5753 5751 5750 5753 5758 5762 5765 5765 5764 5764 5763 5759 5758 5757 5756 5755 5754 5756 5756 5757 5758 5759
5679 5675 5671 5673 5679 5684 5686 5693 5697 5693 5704 5720 5724 5734 5733 5733 5739 5746 5748 5747 5749 5750 5750 5747 5747 5747 5754 5757 5760 5760 5760 5759 5760 5758 5757 5755 5755 5755 5754 5753 5753 5753 5753 5754
5674 5664 5666 5673 5676 5681 5678 5684 5688 5689 5691 5696 5717 5714 5720 5723 5731 5740 5746 5745 5742 5742 5745 5743 5745 5747 5749 5751 5753 5757 5754 5754 5757 5756 5757 5757 5756 5755 5754 5752 5750 5751 5751 5750
5666 5662 5659 5658 5669 5676 5669 5672 5681 5681 5686 5696 5702 5711 5717 5720 5730 5737 5742 5741 5741 5743 5741 5741 5740 5742 5744 5749 5747 5745 5746 5749 5752 5753 5755 5756 5751 5751 5749 5748 5748 5747 5746 5744
5658 5656 5650 5647 5658 5654 5643 5662 5671 5678 5686 5689 5700 5704 5710 5712 5720 5726 5736 5738 5741 5742 5742 5742 5737 5731 5736 5738 5740 5739 5737 5739 5743 5745 5749 5747 5748 5746 5744 5742 5741 5740 5739 5736
5652 5645 5636 5639 5641 5619 5661 5670 5675 5679 5689 5695 5698 5702 5700 5702 5707 5715 5724 5728 5729 5730 5732 5737 5735 5729 5726 5730 5730 5732 5730 5733 5737 5737 5734 5738 5740 5740 5736 5736 5734 5734 5736 5732
5646 5645 5633 5629 5628 5641 5650 5662 5665 5673 5692 5699 5695 5694 5698 5699 5705 5704 5711 5714 5716 5717 5719 5718 5720 5723 5721 5723 5726 5727 5727 5726 5731 5728 5729 5730 5731 5731 5732 5730 5729 5730 5733 5729
5639 5638 5643 5624 5625 5629 5659 5668 5672 5678 5676 5702 5698 5690 5695 5697 5693 5695 5702 5708 5706 5709 5709 5708 5709 5714 5719 5719 5722 5723 5724 5724 5723 5721 5722 5725 5724 5724 5725 5725 5724 5725 5723 5715
5637 5633 5634 5628 5631 5643 5657 5664 5671 5659 5675 5691 5697 5688 5690 5688 5695 5691 5689 5691 5696 5699 5700 5702 5704 5706 5708 5713 5714 5713 5713 5711 5712 5713 5712 5712 5715 5714 5715 5717 5715 5714 5711 5704
5637 5630 5625 5625 5629 5629 5654 5657 5657 5671 5680 5681 5687 5680 5679 5671 5673 5678 5681 5684 5685 5687 5690 5694 5695 5695 5698 5699 5701 5702 5702 5703 5703 5702 5703 5705 5702 5703 5704 5704 5705 5703 5699 5688
5632 5642 5637 5635 5644 5652 5653 5659 5670 5670 5676 5676 5680 5674 5669 5663 5668 5670 5674 5678 5680 5682 5682 5685 5686 5685 5686 5688 5691 5690 5688 5691 5690 5689 5688 5688 5689 5689 5689 5691 5691 5689 5685 5682
5639 5639 5642 5637 5646 5648 5654 5660 5661 5666 5671 5674 5676 5672 5668 5663 5665 5664 5666 5670 5672 5673 5674 5676 5677 5675 5671 5671 5675 5677 5679 5680 5680 5677 5676 5679 5677 5678 5674 5674 5670 5675 5674 5673
5648 5640 5641 5641 5646 5652 5655 5656 5664 5667 5670 5667 5668 5667 5664 5662 5660 5660 5662 5665 5665 5664 5664 5667 5667 5666 5664 5661 5663 5666 5666 5667 5668 5668 5667 5666 5667 5664 5658 5651 5649 5655 5652 5656
5653 5652 5651 5652 5659 5659 5662 5662 5663 5664 5663 5664 5662 5658 5657 5656 5655 5655 5653 5652 5651 5651 5655 5655 5655 5655 5654 5653 5653 5655 5654 5654 5656 5658 5658 5659 5655 5650 5649 5649 5648 5644 5643 5642